N4EWE-13 Weather Reports


Display with metric or nautical units.
time (UTC)temp
F
wind
direction
speed
MPH
gust
MPH
rain 1hr
in
rain 24hr
in
rain mn
in
humidity
%
barometer
mb
20260510174052 87 225 2.0 5.0 0.00 0.00 0.00 34 1015.3
20260510173056 87 175 1.0 3.0 0.00 0.00 0.00 34 1015.3
20260510172100 86 78 1.0 3.0 0.00 0.00 0.00 33 1015.5
20260510171058 85 188 3.0 6.0 0.00 0.00 0.00 34 1015.4
20260510170058 85 184 3.0 5.0 0.00 0.00 0.00 35 1015.3
20260510165044 84 78 2.0 4.0 0.00 0.00 0.00 39 1015.3
20260510164044 83 87 1.0 3.0 0.00 0.00 0.00 36 1015.5
20260510163036 82 327 1.0 4.0 0.00 0.00 0.00 37 1015.5
20260510162034 81 66 2.0 6.0 0.00 0.00 0.00 41 1015.5
20260510161053 80 204 1.0 2.0 0.00 0.00 0.00 47 1015.6
20260510160029 79 166 1.0 3.0 0.00 0.00 0.00 47 1015.8
20260510155111 79 155 2.0 5.0 0.00 0.00 0.00 46 1015.6
20260510154030 78 128 1.0 3.0 0.00 0.00 0.00 50 1015.9
20260510153042 77 175 1.0 3.0 0.00 0.00 0.00 53 1016.0
20260510152040 76 219 2.0 5.0 0.00 0.00 0.00 55 1015.9
20260510151100 76 141 0.0 3.0 0.00 0.00 0.00 59 1015.8
20260510150032 74 149 0.0 4.0 0.00 0.00 0.00 61 1015.7
20260510145027 73 225 0.0 3.0 0.00 0.00 0.00 68 1015.8
20260510144045 72 190 2.0 4.0 0.00 0.00 0.00 72 1015.6
20260510143038 70 229 1.0 2.0 0.00 0.00 0.00 74 1015.6
20260510142037 69 184 1.0 3.0 0.00 0.00 0.00 78 1015.4
20260510141047 68 213 0.0 3.0 0.00 0.00 0.00 81 1015.6
20260510140039 67 87 0.0 3.0 0.00 0.00 0.00 87 1015.8
20260510135037 65 244 0.0 4.0 0.00 0.00 0.00 91 1015.6
20260510134036 64 212 1.0 4.0 0.00 0.00 0.00 94 1015.9
20260510133032 64 259 1.0 5.0 0.00 0.00 0.00 96 1015.9
20260510132027 63 248 2.0 4.0 0.00 0.00 0.00 96 1015.8
20260510131106 62 182 1.0 3.0 0.00 0.00 0.00 97 1015.7
20260510130041 62 346 0.0 2.0 0.00 0.00 0.00 97 1015.4
20260510125035 61 245 0.0 2.0 0.00 0.00 0.00 97 1015.2
20260510124036 60 223 0.0 3.0 0.00 0.00 0.00 97 1015.1
20260510123101 59 200 0.0 2.0 0.00 0.00 0.00 97 1015.1
20260510122035 58 190 0.0 1.0 0.00 0.00 0.00 96 1015.1
20260510121113 58 190 0.0 0.0 0.00 0.00 0.00 95 1015.0
20260510120028 57 190 0.0 0.0 0.00 0.00 0.00 95 1014.7
20260510115051 57 190 0.0 0.0 0.00 0.00 0.00 95 1014.8
20260510114031 57 190 0.0 0.0 0.00 0.00 0.00 95 1014.6
20260510113049 57 190 0.0 0.0 0.00 0.00 0.00 95 1014.6
20260510112046 57 190 0.0 0.0 0.00 0.00 0.00 94 1014.5
20260510111104 57 190 0.0 0.0 0.00 0.00 0.00 94 1014.2
20260510110039 57 190 0.0 0.0 0.00 0.00 0.00 94 1014.1
20260510105033 57 190 0.0 0.0 0.00 0.00 0.00 94 1014.0
20260510104032 57 190 0.0 0.0 0.00 0.00 0.00 94 1013.8
20260510103052 57 190 0.0 0.0 0.00 0.00 0.00 94 1013.5
20260510102046 57 191 0.0 0.0 0.00 0.00 0.00 94 1013.4
20260510101106 57 191 0.0 0.0 0.00 0.00 0.00 93 1013.4
20260510100037 57 191 0.0 0.0 0.00 0.00 0.00 93 1013.2
20260510095031 57 191 0.0 0.0 0.00 0.00 0.00 93 1013.0
20260510094040 57 191 0.0 0.0 0.00 0.00 0.00 93 1013.0
20260510093105 57 191 0.0 0.0 0.00 0.00 0.00 93 1012.9
20260510092047 57 191 0.0 0.0 0.00 0.00 0.00 93 1013.0
20260510091104 57 191 0.0 0.0 0.00 0.00 0.00 93 1012.8
20260510090048 58 191 0.0 0.0 0.00 0.00 0.00 93 1012.7
20260510085041 58 191 0.0 0.0 0.00 0.00 0.00 93 1012.5
20260510084048 58 191 0.0 0.0 0.00 0.00 0.00 93 1012.5
20260510083028 58 191 0.0 0.0 0.00 0.00 0.00 93 1012.5
20260510082051 58 191 0.0 0.0 0.00 0.00 0.00 93 1012.4
20260510081113 58 191 0.0 0.0 0.00 0.00 0.00 93 1012.6
20260510080029 58 191 0.0 0.0 0.00 0.00 0.00 93 1012.4
20260510075051 58 191 0.0 0.0 0.00 0.00 0.00 93 1012.5
20260510074032 58 191 0.0 0.0 0.00 0.00 0.00 92 1012.4
20260510073038 58 191 0.0 0.0 0.00 0.00 0.00 92 1012.4
20260510072046 58 191 0.0 0.0 0.00 0.00 0.00 92 1012.3
20260510071102 58 191 0.0 0.0 0.00 0.00 0.00 92 1012.3
20260510070047 58 191 0.0 0.0 0.00 0.00 0.00 92 1012.3
20260510065026 58 191 0.0 0.0 0.00 0.00 0.00 91 1012.2
20260510064051 58 191 0.0 0.0 0.00 0.00 0.00 92 1012.3
20260510063026 58 191 0.0 0.0 0.00 0.00 0.00 91 1012.1
20260510062033 58 191 0.0 0.0 0.00 0.00 0.00 91 1012.1
20260510061117 59 191 0.0 0.0 0.00 0.00 0.00 91 1012.3
20260510060041 59 191 0.0 0.0 0.00 0.00 0.00 92 1012.4
20260510055050 59 191 0.0 0.0 0.00 0.00 0.00 91 1012.5
20260510054030 59 191 0.0 0.0 0.00 0.00 0.00 91 1012.6
20260510053033 59 191 0.0 0.0 0.00 0.00 0.00 91 1012.5
20260510052041 59 191 0.0 0.0 0.00 0.00 0.00 91 1012.8
20260510051100 59 191 0.0 0.0 0.00 0.00 0.00 90 1012.9
20260510050033 59 191 0.0 0.0 0.00 0.00 0.00 91 1012.9
20260510045031 59 191 0.0 0.0 0.00 0.00 0.00 90 1013.0
20260510044101 60 191 0.0 0.0 0.00 0.00 0.00 90 1012.9
20260510043032 60 191 0.0 0.0 0.00 0.00 0.00 89 1012.6
20260510042030 60 191 0.0 0.0 0.00 0.00 0.00 89 1012.8
20260510041050 60 191 0.0 0.0 0.00 0.00 0.00 89 1012.7
20260510040050 60 191 0.0 0.0 0.00 0.00 0.00 88 1012.7
20260510035040 60 191 0.0 0.0 0.00 0.00 0.00 88 1012.6
20260510034042 61 191 0.0 0.0 0.00 0.00 0.00 88 1012.6
20260510033038 61 191 0.0 0.0 0.00 0.00 0.00 87 1012.5
20260510032037 61 191 0.0 0.0 0.00 0.00 0.00 87 1012.6
20260510031049 61 191 0.0 1.0 0.00 0.00 0.00 87 1012.6
20260510030041 62 191 0.0 0.0 0.00 0.00 0.00 86 1012.4
20260510025038 62 191 0.0 0.0 0.00 0.00 0.00 86 1012.2
20260510024040 62 191 0.0 0.0 0.00 0.00 0.00 86 1012.3
20260510023033 63 191 0.0 0.0 0.00 0.00 0.00 85 1012.3
20260510022032 63 191 0.0 0.0 0.00 0.00 0.00 85 1012.1
20260510021113 64 191 0.0 0.0 0.00 0.00 0.00 85 1012.3
20260510020027 64 191 0.0 0.0 0.00 0.00 0.00 84 1012.0
20260510015027 65 191 0.0 0.0 0.00 0.00 0.00 83 1011.9
20260510014056 65 191 0.0 0.0 0.00 0.00 0.00 83 1011.8
20260510013028 66 191 0.0 0.0 0.00 0.00 0.00 82 1011.7
20260510012030 66 191 0.0 0.0 0.00 0.00 0.00 81 1011.3
20260510011048 67 191 0.0 0.0 0.00 0.00 0.00 80 1011.2
20260510010025 67 191 0.0 0.0 0.00 0.00 0.00 79 1011.2
20260510005049 68 191 0.0 0.0 0.00 0.00 0.00 78 1011.2
20260510004034 69 191 0.0 0.0 0.00 0.00 0.00 78 1011.2
20260510003028 69 191 0.0 0.0 0.00 0.00 0.00 78 1011.2
20260510002028 70 191 0.0 0.0 0.00 0.00 0.00 77 1011.1
20260510001047 70 191 0.0 0.0 0.00 0.00 0.00 76 1011.1
20260510000048 71 191 0.0 1.0 0.00 0.00 0.00 74 1010.9
20260509235046 71 191 0.0 1.0 0.00 0.00 0.00 74 1010.8
20260509234026 72 259 0.0 2.0 0.00 0.00 0.00 73 1010.6
20260509233031 72 238 1.0 2.0 0.00 0.00 0.00 72 1010.7
20260509232026 72 191 1.0 2.0 0.00 0.00 0.00 71 1010.5
20260509231047 72 180 1.0 3.0 0.00 0.00 0.00 71 1010.3
20260509230032 73 198 1.0 6.0 0.00 0.00 0.00 70 1010.2
20260509225036 73 243 2.0 7.0 0.00 0.00 0.00 69 1010.2
20260509224045 74 286 3.0 7.0 0.00 0.00 0.00 68 1010.3
20260509223110 74 263 2.0 8.0 0.00 0.00 0.00 67 1010.4
20260509222025 75 290 2.0 7.0 0.00 0.00 0.00 67 1010.4
20260509221109 74 268 2.0 10.0 0.00 0.00 0.00 68 1010.4
20260509220025 73 234 2.0 6.0 0.00 0.00 0.00 69 1010.4
20260509215034 73 198 2.0 6.0 0.00 0.00 0.00 69 1010.4
20260509214040 73 263 2.0 8.0 0.00 0.00 0.00 68 1010.5
20260509213045 74 311 3.0 7.0 0.00 0.00 0.00 67 1010.1
20260509212101 74 342 2.0 7.0 0.00 0.00 0.00 67 1010.1
20260509211123 74 195 1.0 5.0 0.00 0.00 0.00 67 1010.0
20260509210048 75 177 3.0 7.0 0.00 0.00 0.00 65 1010.2
20260509205027 74 222 2.0 7.0 0.00 0.00 0.00 66 1010.2
20260509204051 74 200 2.0 6.0 0.00 0.00 0.00 65 1010.2
20260509203105 75 355 2.0 7.0 0.00 0.00 0.00 65 1010.3
20260509202024 74 301 3.0 6.0 0.00 0.00 0.00 64 1010.1
20260509201108 73 102 3.0 7.0 0.00 0.00 0.00 67 1010.2
20260509200111 73 210 3.0 7.0 0.00 0.00 0.00 63 1010.3
20260509195028 74 261 3.0 9.0 0.00 0.00 0.00 61 1010.7
20260509194053 74 213 3.0 6.0 0.00 0.00 0.00 60 1010.4
20260509193038 74 295 1.0 7.0 0.00 0.00 0.00 61 1010.6
20260509192046 74 219 2.0 8.0 0.00 0.00 0.00 60 1010.6
20260509191103 75 153 2.0 6.0 0.00 0.00 0.00 58 1010.6
20260509190049 76 204 1.0 6.0 0.00 0.00 0.00 56 1010.6
20260509185048 77 262 4.0 9.0 0.00 0.00 0.00 55 1010.7
20260509184041 78 219 5.0 10.0 0.00 0.00 0.00 53 1010.6
20260509183036 77 212 3.0 7.0 0.00 0.00 0.00 55 1010.7
20260509182034 77 300 3.0 8.0 0.00 0.00 0.00 56 1010.7
20260509181109 77 256 2.0 7.0 0.00 0.00 0.00 55 1011.1
20260509180039 76 318 3.0 7.0 0.00 0.00 0.00 57 1011.4
20260509175037 76 194 3.0 6.0 0.00 0.00 0.00 58 1011.3